Zurück zum Katalog

COSMOS 1275 DEB

AktivPO
NORAD 42228·DEBRIS·🇷🇺 Russia

Gestartet Jun 4, 1981 von Plesetsk Cosmodrome

Loading…

Nächste Überflüge (nächste 24 Stunden)

TLE

AlterndSource: Space-Track

Epoche: Sep 11, 2026, 09:10 UTC

1 42228U 81053UU  26254.38242550  .00000309  00000-0  26752-3 0  9990
2 42228  82.9313 118.5075 0040756 123.2574 237.2502 13.82800176 93659

Verfolge COSMOS 1275 DEB in Echtzeit mit AllMySat

Download on the App Store